Overview Statistics Trail Chart Weather Telemetry Raw packets
 

This is the latest recevied weather packets stored in our database for station/object VE3TEJ. If no packets are shown the sender has not sent any weather packets the latest 10 day(s).

<< 108 109 110 111 112 113 114 >>
Time Temp. Humidity Pressure Rain* Wind** Luminosity Snow
1787941057 22.22° C 50% 1026.6 hPa 0 mm - - -
1787941008 22.22° C 48% 1026.7 hPa 0 mm - - -
1787940756 22.78° C 49% 1026.7 hPa 0 mm - - -
1787940456 22.78° C 53% 1026.7 hPa 0 mm - - -
1787940156 22.78° C 51% 1026.7 hPa 0 mm - - -
1787940107 22.78° C 48% 1026.6 hPa 0 mm - - -
1787939856 22.22° C 54% 1026.5 hPa 0 mm - - -
1787939555 23.33° C 54% 1026.5 hPa 0 mm - - -
1787939255 24.44° C 51% 1026.7 hPa 0 mm - - -
1787939207 23.89° C 52% 1026.6 hPa 0 mm - - -
1787938955 23.89° C 55% 1026.3 hPa 0 mm - - -
1787938657 22.78° C 56% 1026.5 hPa 0 mm - - -
1787938356 22.22° C 56% 1026.6 hPa 0 mm - - -
1787938056 22.22° C 57% 1026.6 hPa 0 mm - - -
1787937756 22.22° C 58% 1026.6 hPa 0 mm - - -
1787937456 22.22° C 58% 1026.6 hPa 0 mm - - -
1787937407 22.22° C 59% 1026.6 hPa 0 mm - - -
1787937155 22.22° C 61% 1026.8 hPa 0 mm - - -
1787936855 22.78° C 59% 1026.7 hPa 0 mm - - -
1787936556 22.22° C 61% 1026.8 hPa 0 mm - - -
1787936255 21.67° C 60% 1026.7 hPa 0 mm - - -
1787935955 21.67° C 60% 1026.8 hPa 0 mm - - -
1787935655 22.22° C 59% 1026.8 hPa 0 mm - - -
1787935357 22.22° C 59% 1026.6 hPa 0 mm - - -
1787935056 21.67° C 60% 1026.7 hPa 0 mm - - -

* Rain latest hour (hover to see other rain measurements)
** Current wind speed in m/s (hover to see current wind gust speed)